Powrót do katalogu

STARLINK-35161

AktywnyŁącznośćVLEO
NORAD 65936·PAYLOAD·🇺🇸 United States

Wystrzelony Oct 8, 2025 z Vandenberg Space Force Base

Loading…

Następne Przeloty (najbliższe 24 godziny)

TLE

ŚwieżeSource: CelesTrak SupGP

Epoka: Sep 14, 2026, 21:34 UTC

1 65936C 25225AC  26257.89909722 -.00001943  00000+0 -57418-4 0  2577
2 65936  53.1592   3.8538 0001214  85.3187  98.1547 15.34378124    16

Śledź STARLINK-35161 w czasie rzeczywistym z AllMySat

Download on the App Store